• Em Portugal
  • Lista de países
  • Para 7 dias
  • Temperatura da água
  • Mapas de satélite
  • Mapa do tempo
  • Widgets de tempo
  • user-avatar
    Iniciar Sessão

    Previsão horária em Al Hilla

    Hoje, 23 Janeiro, Terça-feira

    Tempo Temperatura Precipitação Vento Pressão Humidade
    00:00 +14°C° 0 mm 6 m/s 757 mmHg 26%
    01:00 +14°C° 0 mm 6 m/s 756 mmHg 27%
    02:00 +13°C° 0 mm 6 m/s 756 mmHg 27%
    03:00 +12°C° 0 mm 7 m/s 756 mmHg 28%
    04:00 +12°C° 0 mm 7 m/s 756 mmHg 28%
    05:00 +12°C° 0 mm 7 m/s 756 mmHg 29%
    06:00 +11°C° 0 mm 7 m/s 756 mmHg 29%
    07:00 +12°C° 0 mm 8 m/s 756 mmHg 28%
    08:00 +13°C° 0 mm 8 m/s 756 mmHg 27%
    09:00 +13°C° 0 mm 8 m/s 756 mmHg 27%
    10:00 +16°C° 0 mm 8 m/s 756 mmHg 25%
    11:00 +17°C° 0 mm 8 m/s 755 mmHg 22%
    12:00 +20°C° 0 mm 8 m/s 755 mmHg 20%
    13:00 +21°C° 0 mm 8 m/s 755 mmHg 19%
    14:00 +22°C° 0 mm 7 m/s 754 mmHg 18%
    15:00 +22°C° 0 mm 7 m/s 754 mmHg 17%
    16:00 +21°C° 0 mm 5 m/s 754 mmHg 18%
    17:00 +20°C° 0 mm 4 m/s 755 mmHg 19%
    18:00 +19°C° 0 mm 2 m/s 755 mmHg 21%
    19:00 +18°C° 0 mm 2 m/s 755 mmHg 22%
    20:00 +17°C° 0 mm 2 m/s 755 mmHg 23%
    21:00 +17°C° 0 mm 2 m/s 756 mmHg 24%
    22:00 +16°C° 0 mm 2 m/s 756 mmHg 25%
    23:00 +16°C° 0 mm 2 m/s 756 mmHg 26%

    Amanhã, 24 Janeiro, Quarta-feira

    Tempo Temperatura Precipitação Vento Pressão Humidade
    00:00 +16°C° 0 mm 2 m/s 756 mmHg 27%
    01:00 +15°C° 0 mm 2 m/s 757 mmHg 28%
    02:00 +15°C° 0 mm 2 m/s 757 mmHg 30%
    03:00 +15°C° 0 mm 2 m/s 757 mmHg 32%
    04:00 +14°C° 0 mm 2 m/s 757 mmHg 36%
    05:00 +14°C° 0 mm 2 m/s 757 mmHg 39%
    06:00 +13°C° 0 mm 2 m/s 758 mmHg 43%
    07:00 +14°C° 0 mm 2 m/s 758 mmHg 42%
    08:00 +15°C° 0 mm 2 m/s 758 mmHg 42%
    09:00 +16°C° 0 mm 1 m/s 759 mmHg 41%
    10:00 +19°C° 0 mm 1 m/s 759 mmHg 38%
    11:00 +20°C° 0 mm 1 m/s 759 mmHg 35%
    12:00 +22°C° 0 mm 1 m/s 759 mmHg 32%
    13:00 +21°C° 0 mm 2 m/s 758 mmHg 31%
    14:00 +23°C° 0 mm 2 m/s 758 mmHg 31%
    15:00 +23°C° 0 mm 2 m/s 758 mmHg 30%
    16:00 +21°C° 0 mm 2 m/s 758 mmHg 33%
    17:00 +20°C° 0 mm 2 m/s 758 mmHg 36%
    18:00 +20°C° 0 mm 1 m/s 758 mmHg 38%
    19:00 +20°C° 0 mm 1 m/s 758 mmHg 40%
    20:00 +19°C° 0 mm 1 m/s 758 mmHg 42%
    21:00 +18°C° 0 mm 1 m/s 759 mmHg 44%
    22:00 +18°C° 0 mm 1 m/s 759 mmHg 46%
    23:00 +18°C° 0 mm 1 m/s 759 mmHg 47%

    Depois de amanhã, 25 Janeiro, Quinta-feira

    Tempo Temperatura Precipitação Vento Pressão Humidade
    00:00 +16°C° 0 mm 1 m/s 758 mmHg 48%
    01:00 +16°C° 0 mm 2 m/s 758 mmHg 48%
    02:00 +16°C° 0 mm 2 m/s 758 mmHg 48%
    03:00 +16°C° 0 mm 3 m/s 758 mmHg 47%
    04:00 +16°C° 0 mm 3 m/s 758 mmHg 47%
    05:00 +14°C° 0 mm 3 m/s 758 mmHg 47%
    06:00 +14°C° 0 mm 3 m/s 757 mmHg 47%
    07:00 +15°C° 0 mm 4 m/s 758 mmHg 44%
    08:00 +17°C° 0 mm 4 m/s 758 mmHg 40%
    09:00 +18°C° 0 mm 4 m/s 758 mmHg 37%
    10:00 +20°C° 0 mm 5 m/s 757 mmHg 32%
    11:00 +22°C° 0 mm 5 m/s 757 mmHg 27%
    12:00 +24°C° 0 mm 6 m/s 757 mmHg 23%
    13:00 +24°C° 0 mm 6 m/s 756 mmHg 21%
    14:00 +26°C° 0 mm 6 m/s 755 mmHg 20%
    15:00 +27°C° 0 mm 7 m/s 754 mmHg 18%
    16:00 +26°C° 0 mm 6 m/s 754 mmHg 19%
    17:00 +25°C° 0 mm 5 m/s 754 mmHg 20%
    18:00 +23°C° 0 mm 4 m/s 753 mmHg 21%
    19:00 +22°C° 0 mm 5 m/s 753 mmHg 22%
    20:00 +22°C° 0 mm 5 m/s 753 mmHg 23%
    21:00 +21°C° 0 mm 5 m/s 753 mmHg 24%
    22:00 +21°C° 0 mm 6 m/s 753 mmHg 27%
    23:00 +20°C° 0 mm 6 m/s 753 mmHg 31%

    26 Janeiro, Sexta-feira

    Tempo Temperatura Precipitação Vento Pressão Humidade
    00:00 +19°C° 0 mm 6 m/s 753 mmHg 35%
    01:00 +19°C° 0 mm 6 m/s 753 mmHg 35%
    02:00 +17°C° 0 mm 6 m/s 753 mmHg 36%
    03:00 +16°C° 0 mm 5 m/s 753 mmHg 37%
    04:00 +15°C° 0 mm 5 m/s 754 mmHg 41%
    05:00 +15°C° 0 mm 5 m/s 754 mmHg 45%
    06:00 +14°C° 0 mm 4 m/s 755 mmHg 49%
    07:00 +15°C° 0 mm 5 m/s 756 mmHg 48%
    08:00 +15°C° 0 mm 5 m/s 756 mmHg 47%
    09:00 +16°C° 0 mm 5 m/s 757 mmHg 46%
    10:00 +18°C° 0 mm 4 m/s 757 mmHg 42%
    11:00 +19°C° 0 mm 4 m/s 757 mmHg 38%
    12:00 +20°C° 0 mm 3 m/s 758 mmHg 34%
    13:00 +20°C° 0 mm 3 m/s 757 mmHg 32%
    14:00 +21°C° 0 mm 3 m/s 757 mmHg 30%
    15:00 +21°C° 0 mm 3 m/s 756 mmHg 27%
    16:00 +20°C° 0 mm 3 m/s 756 mmHg 28%
    17:00 +19°C° 0 mm 2 m/s 756 mmHg 29%
    18:00 +19°C° 0 mm 2 m/s 756 mmHg 30%
    19:00 +18°C° 0 mm 2 m/s 757 mmHg 30%
    20:00 +18°C° 0 mm 2 m/s 757 mmHg 31%
    21:00 +17°C° 0 mm 2 m/s 758 mmHg 32%
    22:00 +17°C° 0 mm 3 m/s 758 mmHg 32%
    23:00 +17°C° 0 mm 3 m/s 758 mmHg 33%

    27 Janeiro, Sábado

    Tempo Temperatura Precipitação Vento Pressão Humidade
    00:00 +16°C° 0 mm 3 m/s 757 mmHg 33%
    01:00 +14°C° 0,2 mm 5 m/s 758 mmHg 39%
    02:00 +12°C° 0,2 mm 7 m/s 758 mmHg 45%
    03:00 +11°C° 0,2 mm 9 m/s 758 mmHg 51%
    04:00 +11°C° 0,8 mm 7 m/s 758 mmHg 55%
    05:00 +10°C° 0,8 mm 5 m/s 758 mmHg 59%
    06:00 +12°C° 0,8 mm 2 m/s 758 mmHg 62%
    07:00 +12°C° 0 mm 3 m/s 759 mmHg 57%
    08:00 +12°C° 0 mm 3 m/s 759 mmHg 52%
    09:00 +13°C° 0 mm 4 m/s 760 mmHg 47%
    10:00 +14°C° 0 mm 4 m/s 760 mmHg 42%
    11:00 +15°C° 0 mm 4 m/s 759 mmHg 37%
    12:00 +17°C° 0 mm 4 m/s 759 mmHg 32%
    13:00 +17°C° 0 mm 4 m/s 759 mmHg 32%
    14:00 +17°C° 0 mm 4 m/s 759 mmHg 31%
    15:00 +17°C° 0 mm 5 m/s 758 mmHg 31%
    16:00 +17°C° 0 mm 4 m/s 758 mmHg 34%
    17:00 +17°C° 0 mm 4 m/s 758 mmHg 37%
    18:00 +16°C° 0 mm 3 m/s 759 mmHg 40%
    19:00 +15°C° 0,2 mm 4 m/s 759 mmHg 45%
    20:00 +14°C° 0,2 mm 4 m/s 759 mmHg 50%
    21:00 +13°C° 0,2 mm 4 m/s 760 mmHg 55%
    22:00 +13°C° 0,1 mm 4 m/s 760 mmHg 58%
    23:00 +13°C° 0,1 mm 3 m/s 760 mmHg 61%

    28 Janeiro, Domingo

    Tempo Temperatura Precipitação Vento Pressão Humidade
    00:00 +12°C° 0,1 mm 3 m/s 760 mmHg 64%
    01:00 +12°C° 0 mm 3 m/s 760 mmHg 64%
    02:00 +11°C° 0 mm 3 m/s 760 mmHg 65%
    03:00 +11°C° 0 mm 4 m/s 760 mmHg 65%
    04:00 +11°C° 0 mm 4 m/s 760 mmHg 64%
    05:00 +11°C° 0 mm 4 m/s 760 mmHg 62%
    06:00 +10°C° 0 mm 4 m/s 761 mmHg 61%
    07:00 +10°C° 0 mm 5 m/s 761 mmHg 58%
    08:00 +12°C° 0 mm 5 m/s 762 mmHg 54%
    09:00 +13°C° 0 mm 6 m/s 762 mmHg 51%
    10:00 +14°C° 0 mm 6 m/s 762 mmHg 46%
    11:00 +15°C° 0 mm 7 m/s 762 mmHg 42%
    12:00 +16°C° 0 mm 7 m/s 762 mmHg 38%
    13:00 +17°C° 0 mm 7 m/s 761 mmHg 36%
    14:00 +17°C° 0 mm 8 m/s 761 mmHg 34%
    15:00 +18°C° 0 mm 8 m/s 761 mmHg 31%
    16:00 +17°C° 0 mm 7 m/s 761 mmHg 32%
    17:00 +16°C° 0 mm 6 m/s 761 mmHg 33%
    18:00 +16°C° 0 mm 6 m/s 761 mmHg 34%
    19:00 +15°C° 0 mm 6 m/s 761 mmHg 36%
    20:00 +15°C° 0 mm 6 m/s 761 mmHg 38%
    21:00 +14°C° 0 mm 5 m/s 761 mmHg 40%
    22:00 +14°C° 0 mm 5 m/s 761 mmHg 41%
    23:00 +13°C° 0 mm 5 m/s 761 mmHg 42%
    Mostrar mais